Погода в Отрадном

Россия / Хабаровский край     47°29′36″N   134°42′08″E
темп.,
°C
ветер,
м/с
пор.,
м/с
влажн.,
%
обл.,
%
осадки,
мм/ч
давл.,
гПа
погр.,
м
18 мая, вт
вт1801:00+14ююв384728 0.0 1002109
04:00+13ю412515 0.0 1003209
07:00+14ю412572 0.0 1003266
10:00+22ююз5103822 0.0 1003610
13:00+26юз7103318 0.0 10021706
16:00+26ююз710335 0.0 10012208
19:00+23ююз613391 0.0 1001630
22:00+18ю514517 0.0 1002313
19 мая, ср
ср1901:00+20ююз7173660 0.0 1001533
04:00+14ю496041 0.0 1001165
07:00+15ю211606 0.0 1001306
10:00+21юз5944100 0.3 1003851
13:00+23юз474499 0.0 10031127
16:00+25з584111 0.0 10032091
19:00+22сз365910 0.0 1003359
22:00+16ю227719 0.1 100513
20 мая, чт
чт2001:00+15ююв22825 0.1 100517
04:00+13юв23925 0.2 100556
07:00+15ююв310861 0.4 1004273
10:00+24ююз611484 0.8 1003749
13:00+26юз694173 0.0 10031447
16:00+29зюз69395 0.0 10022370
19:00+26юз37510 0.0 1002231
22:00+20ю226831 0.0 100420
21 мая, пт
пт2101:00+18ю33711 0.0 100441
04:00+15юв218522 0.4 100513
07:00+17ююв12815 0.0 100573
10:00+22ссз1159100 0.0 1006632
13:00+27ссз2147100 0.0 1004930
16:00+28ссз3241100 0.0 10021344
19:00+25св2557100 0.0 100195
22:00+19в2373100 0.1 100356
22 мая, сб
сб2201:00+17вюв2279100 0.0 100235
04:00+16вюв2278100 0.0 100219
07:00+15св4772100 0.0 1004256
10:00+19св4553100 0.0 1004525
13:00+24ссв444597 0.0 10041019
16:00+24ссв444391 0.0 10031066
19:00+21св3554100 0.0 1004291
22:00+16вюв33695 0.0 100540